Location: Pradons
(44.4746°N, 4.3578°E)
Time: 15:17:54
(UTC+00:00)

GEOS 3 Rocket - Pass Details

Date: 09 April 2020
Orbit: 774 x 845 km, 115.0° (Epoch: 27 May)

Event Time Altitude Azimuth Distance (km) Brightness Sun altitude
Exits shadow 19:27:21 - 156° (SSE) 2,568 5.8 -12.2°
Reaches altitude 10° 19:27:55 10° 158° (SSE) 2,348 5.6 -12.3°
Maximum altitude 19:32:55 57° 236° (SW) 942 4.1 -13.1°
Drops below altitude 10° 19:38:03 10° 315° (NW) 2,407 7.3 -13.9°
Sets 19:40:26 0° 320° (NW) 3,354 8.1 -14.3°
